Location: Saratov
(51.5670°N, 46.0330°E)
Time: 22:39:57
(UTC+03:00)

Envisat - Visible Passes

Search period start: 17 September 2019 00:00
Search period end: 27 September 2019 00:00
Orbit: 764 x 766 km, 98.1° (Epoch: 17 September)

Date Brightness Start Highest point End Pass type
(mag) Time Alt. Az. Time Alt. Az. Time Alt. Az.
17 Sep 5.8 19:18:46 10° SW 19:22:27 20° W 19:26:08 10° NW visible
18 Sep 4.7 18:40:36 10° SSW 18:45:19 38° W 18:50:04 10° NNW visible
19 Sep 6.2 19:46:21 10° WSW 19:48:20 12° W 19:50:18 10° WNW visible
20 Sep 5.5 19:06:59 10° SW 19:11:03 24° W 19:15:09 10° NW visible
21 Sep 4.3 18:29:07 10° S 18:33:59 46° W 18:38:54 10° NNW visible
22 Sep 6.0 19:34:01 10° WSW 19:36:54 15° W 19:39:46 10° NW visible
23 Sep 5.2 18:55:18 10° SSW 18:59:41 29° W 19:04:07 10° NNW visible
24 Sep 3.9 18:17:41 10° S 18:22:41 56° W 18:27:43 10° NNW visible
25 Sep 5.9 19:22:00 10° SW 19:25:29 18° W 19:28:59 10° NW visible
26 Sep 4.8 18:43:42 10° SSW 18:48:20 35° W 18:53:00 10° NNW visible
